• In Uzbekistan
  • List of Countries
  • For 7 days
  • Water Temperature
  • Satellite Maps
  • Weather Map
  • Weather Widgets
  • user-avatar
    Login

    Hourly Weather Malanje

    Today, 23 June, Friday

    Time Temperature Precipitation Wind Pressure Humidity
    00:00 +18°C° 0 mm 1 mps 665 mmHg 55%
    01:00 +16°C° 0 mm 1 mps 665 mmHg 60%
    02:00 +16°C° 0 mm 2 mps 665 mmHg 58%
    03:00 +16°C° 0 mm 2 mps 665 mmHg 56%
    04:00 +16°C° 0 mm 2 mps 665 mmHg 54%
    05:00 +16°C° 0 mm 3 mps 666 mmHg 52%
    06:00 +16°C° 0 mm 3 mps 666 mmHg 50%
    07:00 +16°C° 0 mm 3 mps 666 mmHg 48%
    08:00 +19°C° 0 mm 4 mps 667 mmHg 41%
    09:00 +22°C° 0 mm 5 mps 668 mmHg 34%
    10:00 +26°C° 0 mm 5 mps 668 mmHg 28%
    11:00 +28°C° 0 mm 5 mps 668 mmHg 26%
    12:00 +29°C° 0 mm 4 mps 668 mmHg 24%
    13:00 +32°C° 0 mm 4 mps 667 mmHg 22%
    14:00 +31°C° 0 mm 3 mps 667 mmHg 21%
    15:00 +31°C° 0 mm 3 mps 666 mmHg 21%
    16:00 +31°C° 0 mm 2 mps 666 mmHg 21%
    17:00 +28°C° 0 mm 2 mps 665 mmHg 26%
    18:00 +24°C° 0 mm 2 mps 665 mmHg 31%
    19:00 +20°C° 0 mm 2 mps 664 mmHg 36%
    20:00 +20°C° 0 mm 2 mps 664 mmHg 37%
    21:00 +19°C° 0 mm 2 mps 665 mmHg 38%
    22:00 +19°C° 0 mm 2 mps 665 mmHg 38%
    23:00 +18°C° 0 mm 2 mps 665 mmHg 39%

    Tomorrow, 24 June, Saturday

    Time Temperature Precipitation Wind Pressure Humidity
    00:00 +18°C° 0 mm 2 mps 665 mmHg 40%
    01:00 +17°C° 0 mm 2 mps 665 mmHg 41%
    02:00 +17°C° 0 mm 2 mps 665 mmHg 42%
    03:00 +16°C° 0 mm 3 mps 665 mmHg 43%
    04:00 +14°C° 0 mm 3 mps 664 mmHg 44%
    05:00 +14°C° 0 mm 3 mps 665 mmHg 44%
    06:00 +14°C° 0 mm 3 mps 665 mmHg 45%
    07:00 +14°C° 0 mm 4 mps 666 mmHg 45%
    08:00 +19°C° 0 mm 4 mps 667 mmHg 38%
    09:00 +22°C° 0 mm 4 mps 667 mmHg 32%
    10:00 +27°C° 0 mm 5 mps 668 mmHg 25%
    11:00 +28°C° 0 mm 4 mps 668 mmHg 23%
    12:00 +30°C° 0 mm 4 mps 668 mmHg 21%
    13:00 +33°C° 0 mm 3 mps 667 mmHg 19%
    14:00 +33°C° 0 mm 3 mps 667 mmHg 18%
    15:00 +31°C° 0 mm 2 mps 666 mmHg 18%
    16:00 +31°C° 0 mm 2 mps 665 mmHg 18%
    17:00 +28°C° 0 mm 2 mps 665 mmHg 23%
    18:00 +25°C° 0 mm 2 mps 664 mmHg 28%
    19:00 +20°C° 0 mm 2 mps 664 mmHg 34%
    20:00 +20°C° 0 mm 1 mps 664 mmHg 35%
    21:00 +20°C° 0 mm 1 mps 664 mmHg 37%
    22:00 +19°C° 0 mm 1 mps 665 mmHg 39%
    23:00 +18°C° 0 mm 1 mps 664 mmHg 42%

    Day after tomorrow, 25 June, Sunday

    Time Temperature Precipitation Wind Pressure Humidity
    00:00 +18°C° 0 mm 1 mps 664 mmHg 45%
    01:00 +16°C° 0 mm 1 mps 664 mmHg 49%
    02:00 +16°C° 0 mm 1 mps 664 mmHg 50%
    03:00 +15°C° 0 mm 1 mps 663 mmHg 52%
    04:00 +14°C° 0 mm 1 mps 663 mmHg 54%
    05:00 +15°C° 0 mm 1 mps 664 mmHg 51%
    06:00 +16°C° 0 mm 2 mps 664 mmHg 48%
    07:00 +17°C° 0 mm 2 mps 665 mmHg 45%
    08:00 +20°C° 0 mm 2 mps 666 mmHg 38%
    09:00 +25°C° 0 mm 3 mps 667 mmHg 30%
    10:00 +28°C° 0 mm 3 mps 668 mmHg 23%
    11:00 +30°C° 0 mm 3 mps 667 mmHg 21%
    12:00 +31°C° 0 mm 3 mps 667 mmHg 19%
    13:00 +34°C° 0 mm 3 mps 666 mmHg 17%
    14:00 +34°C° 0 mm 3 mps 666 mmHg 17%
    15:00 +34°C° 0 mm 3 mps 665 mmHg 17%
    16:00 +34°C° 0 mm 2 mps 665 mmHg 17%
    17:00 +29°C° 0 mm 2 mps 664 mmHg 22%
    18:00 +26°C° 0 mm 2 mps 664 mmHg 27%
    19:00 +23°C° 0 mm 2 mps 664 mmHg 33%
    20:00 +21°C° 0 mm 2 mps 664 mmHg 35%
    21:00 +21°C° 0 mm 1 mps 664 mmHg 37%
    22:00 +20°C° 0 mm 1 mps 664 mmHg 39%
    23:00 +19°C° 0 mm 1 mps 664 mmHg 42%

    26 June, Monday

    Time Temperature Precipitation Wind Pressure Humidity
    00:00 +18°C° 0 mm 1 mps 663 mmHg 45%
    01:00 +18°C° 0 mm 1 mps 663 mmHg 49%
    02:00 +16°C° 0 mm 1 mps 663 mmHg 52%
    03:00 +16°C° 0 mm 1 mps 663 mmHg 55%
    04:00 +15°C° 0 mm 1 mps 663 mmHg 58%
    05:00 +16°C° 0 mm 1 mps 663 mmHg 55%
    06:00 +18°C° 0 mm 1 mps 664 mmHg 51%
    07:00 +19°C° 0 mm 1 mps 665 mmHg 48%
    08:00 +21°C° 0 mm 2 mps 666 mmHg 40%
    09:00 +26°C° 0 mm 2 mps 667 mmHg 32%
    10:00 +29°C° 0 mm 2 mps 668 mmHg 24%
    11:00 +31°C° 0 mm 3 mps 667 mmHg 22%
    12:00 +33°C° 0 mm 3 mps 667 mmHg 20%
    13:00 +35°C° 0 mm 3 mps 666 mmHg 18%
    14:00 +34°C° 0 mm 3 mps 666 mmHg 18%
    15:00 +34°C° 0 mm 3 mps 665 mmHg 18%
    16:00 +34°C° 0 mm 3 mps 665 mmHg 19%
    17:00 +30°C° 0 mm 2 mps 664 mmHg 24%
    18:00 +26°C° 0 mm 2 mps 664 mmHg 30%
    19:00 +23°C° 0 mm 2 mps 664 mmHg 35%
    20:00 +22°C° 0 mm 1 mps 664 mmHg 38%
    21:00 +21°C° 0 mm 1 mps 664 mmHg 41%
    22:00 +20°C° 0 mm 1 mps 664 mmHg 44%
    23:00 +20°C° 0 mm 1 mps 664 mmHg 46%

    27 June, Tuesday

    Time Temperature Precipitation Wind Pressure Humidity
    00:00 +19°C° 0 mm 1 mps 664 mmHg 48%
    01:00 +19°C° 0 mm 1 mps 664 mmHg 50%
    02:00 +18°C° 0 mm 1 mps 664 mmHg 52%
    03:00 +18°C° 0 mm 1 mps 664 mmHg 54%
    04:00 +18°C° 0 mm 1 mps 664 mmHg 55%
    05:00 +18°C° 0 mm 1 mps 665 mmHg 54%
    06:00 +19°C° 0 mm 1 mps 665 mmHg 52%
    07:00 +19°C° 0 mm 1 mps 666 mmHg 51%
    08:00 +23°C° 0 mm 2 mps 667 mmHg 42%
    09:00 +26°C° 0 mm 3 mps 668 mmHg 33%
    10:00 +29°C° 0 mm 3 mps 669 mmHg 24%
    11:00 +31°C° 0 mm 3 mps 668 mmHg 22%
    12:00 +33°C° 0 mm 4 mps 668 mmHg 20%
    13:00 +35°C° 0 mm 4 mps 667 mmHg 18%
    14:00 +34°C° 0 mm 3 mps 667 mmHg 18%
    15:00 +34°C° 0 mm 3 mps 666 mmHg 17%
    16:00 +34°C° 0 mm 3 mps 666 mmHg 17%
    17:00 +30°C° 0 mm 2 mps 666 mmHg 22%
    18:00 +26°C° 0 mm 2 mps 666 mmHg 27%
    19:00 +23°C° 0 mm 2 mps 665 mmHg 31%
    20:00 +21°C° 0 mm 2 mps 665 mmHg 33%
    21:00 +21°C° 0 mm 2 mps 666 mmHg 35%
    22:00 +20°C° 0 mm 2 mps 666 mmHg 36%
    23:00 +20°C° 0 mm 1 mps 665 mmHg 41%

    28 June, Wednesday

    Time Temperature Precipitation Wind Pressure Humidity
    00:00 +19°C° 0 mm 1 mps 665 mmHg 47%
    01:00 +18°C° 0 mm 1 mps 665 mmHg 52%
    02:00 +16°C° 0 mm 1 mps 664 mmHg 54%
    03:00 +16°C° 0 mm 1 mps 664 mmHg 57%
    04:00 +15°C° 0 mm 1 mps 664 mmHg 60%
    05:00 +16°C° 0 mm 1 mps 665 mmHg 56%
    06:00 +18°C° 0 mm 1 mps 666 mmHg 52%
    07:00 +19°C° 0 mm 1 mps 666 mmHg 48%
    08:00 +21°C° 0 mm 2 mps 667 mmHg 40%
    09:00 +26°C° 0 mm 3 mps 668 mmHg 31%
    10:00 +29°C° 0 mm 3 mps 669 mmHg 22%
    11:00 +31°C° 0 mm 3 mps 668 mmHg 20%
    12:00 +33°C° 0 mm 3 mps 668 mmHg 18%
    13:00 +34°C° 0 mm 3 mps 668 mmHg 16%
    14:00 +34°C° 0 mm 3 mps 667 mmHg 16%
    15:00 +34°C° 0 mm 3 mps 667 mmHg 15%
    16:00 +34°C° 0 mm 2 mps 666 mmHg 15%
    17:00 +29°C° 0 mm 2 mps 666 mmHg 20%
    18:00 +26°C° 0 mm 2 mps 665 mmHg 24%
    19:00 +23°C° 0 mm 2 mps 665 mmHg 28%
    20:00 +21°C° 0 mm 2 mps 665 mmHg 31%
    21:00 +21°C° 0 mm 1 mps 665 mmHg 34%
    22:00 +20°C° 0 mm 1 mps 665 mmHg 36%
    23:00 +19°C° 0 mm 1 mps 665 mmHg 44%
    Show more